TimeMDT,TemperatureF,Dew PointF,Humidity,Sea Level PressureIn,VisibilityMPH,Wind Direction,Wind SpeedMPH,Gust SpeedMPH,PrecipitationIn,Events,Conditions,WindDirDegrees,DateUTC
12:15 AM,62.6,12.2,14,29.92,10.0,ESE,3.5,-,N/A,,Clear,120,2014-05-06 06:15:00
12:35 AM,64.4,14.0,14,29.92,10.0,SSE,3.5,-,N/A,,Clear,150,2014-05-06 06:35:00
12:55 AM,62.6,14.0,15,29.91,10.0,South,3.5,-,N/A,,Clear,170,2014-05-06 06:55:00
1:15 AM,59.0,14.0,17,29.91,10.0,SSE,6.9,-,N/A,Rain,Light Rain,150,2014-05-06 07:15:00
1:35 AM,59.0,12.2,16,29.90,10.0,South,6.9,-,N/A,Rain,Light Rain,170,2014-05-06 07:35:00
5:55 AM,57.2,14.0,18,29.91,10.0,SSE,5.8,-,N/A,Rain,Light Rain,160,2014-05-06 11:55:00
6:15 AM,53.6,14.0,21,29.91,10.0,SSE,6.9,-,N/A,Rain,Light Rain,160,2014-05-06 12:15:00
6:35 AM,55.4,14.0,20,29.92,10.0,SSE,5.8,-,N/A,Rain,Light Rain,160,2014-05-06 12:35:00
6:55 AM,53.6,14.0,21,29.92,10.0,South,6.9,-,N/A,Rain,Light Rain,170,2014-05-06 12:55:00
7:15 AM,59.0,15.8,19,29.92,10.0,South,8.1,-,N/A,Rain,Light Rain,170,2014-05-06 13:15:00
7:55 AM,68.0,19.4,16,29.93,10.0,South,11.5,-,N/A,Rain,Light Rain,170,2014-05-06 13:55:00
8:15 AM,71.6,19.4,14,29.93,10.0,South,9.2,-,N/A,Rain,Light Rain,190,2014-05-06 14:15:00
8:35 AM,71.6,19.4,14,29.93,10.0,South,9.2,-,N/A,Rain,Light Rain,170,2014-05-06 14:35:00
8:55 AM,71.6,21.2,15,29.93,10.0,SW,8.1,-,N/A,Rain,Light Rain,220,2014-05-06 14:55:00
9:15 AM,73.4,23.0,15,29.92,10.0,South,13.8,17.3,N/A,,Clear,190,2014-05-06 15:15:00
9:35 AM,73.4,23.0,15,29.92,10.0,WSW,19.6,32.2,N/A,,Clear,240,2014-05-06 15:35:00
9:55 AM,75.2,23.0,14,29.92,10.0,WSW,16.1,23.0,N/A,,Clear,250,2014-05-06 15:55:00
10:15 AM,75.2,23.0,14,29.92,10.0,WSW,11.5,21.9,N/A,,Clear,240,2014-05-06 16:15:00
10:35 AM,77.0,23.0,13,29.91,10.0,SW,15.0,23.0,N/A,,Clear,230,2014-05-06 16:35:00
10:55 AM,75.2,19.4,12,29.91,10.0,WSW,13.8,24.2,N/A,,Clear,240,2014-05-06 16:55:00
11:15 AM,77.0,21.2,12,29.90,10.0,South,16.1,23.0,N/A,,Clear,190,2014-05-06 17:15:00
11:35 AM,77.0,19.4,12,29.91,10.0,SSW,15.0,25.3,N/A,,Clear,200,2014-05-06 17:35:00
11:55 AM,77.0,19.4,12,29.90,10.0,SSW,12.7,24.2,N/A,,Clear,200,2014-05-06 17:55:00
12:15 PM,77.0,17.6,11,29.89,10.0,SW,11.5,20.7,N/A,,Clear,220,2014-05-06 18:15:00
12:35 PM,78.8,17.6,10,29.88,10.0,West,11.5,21.9,N/A,,Clear,260,2014-05-06 18:35:00
12:55 PM,80.6,15.8,9,29.87,10.0,WSW,13.8,25.3,N/A,,Clear,240,2014-05-06 18:55:00
1:15 PM,80.6,15.8,9,29.85,10.0,SW,16.1,20.7,N/A,,Clear,220,2014-05-06 19:15:00
1:35 PM,80.6,15.8,9,29.84,10.0,WSW,11.5,24.2,N/A,,Clear,240,2014-05-06 19:35:00
2:15 PM,82.4,15.8,8,29.82,10.0,West,18.4,24.2,N/A,,Clear,260,2014-05-06 20:15:00
2:35 PM,82.4,15.8,8,29.82,10.0,West,16.1,21.9,N/A,,Clear,260,2014-05-06 20:35:00
2:55 PM,82.4,15.8,8,29.80,10.0,SSW,18.4,23.0,N/A,,Clear,210,2014-05-06 20:55:00
3:15 PM,82.4,17.6,9,29.79,10.0,SSW,13.8,26.5,N/A,,Clear,210,2014-05-06 21:15:00
3:35 PM,82.4,17.6,9,29.78,10.0,WSW,16.1,19.6,N/A,,Clear,250,2014-05-06 21:35:00
3:55 PM,82.4,17.6,9,29.77,10.0,SW,18.4,28.8,N/A,,Clear,230,2014-05-06 21:55:00
4:15 PM,82.4,17.6,9,29.76,10.0,SW,10.4,19.6,N/A,,Clear,220,2014-05-06 22:15:00
4:35 PM,82.4,17.6,9,29.76,10.0,SW,17.3,27.6,N/A,,Clear,230,2014-05-06 22:35:00
4:55 PM,84.2,17.6,8,29.75,10.0,SSW,15.0,23.0,N/A,,Clear,210,2014-05-06 22:55:00
5:15 PM,84.2,15.8,8,29.74,10.0,SW,16.1,23.0,N/A,,Clear,220,2014-05-06 23:15:00
5:35 PM,82.4,15.8,8,29.74,10.0,WSW,23.0,28.8,N/A,,Clear,240,2014-05-06 23:35:00
5:55 PM,82.4,17.6,9,29.73,10.0,SW,21.9,31.1,N/A,,Clear,230,2014-05-06 23:55:00
6:15 PM,82.4,17.6,9,29.72,10.0,WSW,25.3,35.7,N/A,,Clear,240,2014-05-07 00:15:00
6:35 PM,82.4,17.6,9,29.72,10.0,WSW,18.4,32.2,N/A,,Clear,240,2014-05-07 00:35:00
6:55 PM,82.4,19.4,10,29.73,10.0,SW,17.3,25.3,N/A,,Clear,230,2014-05-07 00:55:00
7:15 PM,80.6,19.4,10,29.72,10.0,SSW,18.4,24.2,N/A,,Clear,210,2014-05-07 01:15:00
7:35 PM,80.6,21.2,11,29.73,10.0,SW,15.0,21.9,N/A,,Clear,230,2014-05-07 01:35:00
7:55 PM,78.8,19.4,11,29.73,10.0,SW,11.5,-,N/A,,Clear,230,2014-05-07 01:55:00
8:15 PM,77.0,19.4,12,29.74,10.0,SW,9.2,-,N/A,Rain,Light Rain,220,2014-05-07 02:15:00
8:35 PM,75.2,19.4,12,29.74,10.0,SSW,6.9,-,N/A,Rain,Light Rain,200,2014-05-07 02:35:00
8:55 PM,75.2,19.4,12,29.75,10.0,SSW,10.4,17.3,N/A,Rain,Light Rain,210,2014-05-07 02:55:00
9:15 PM,75.2,21.2,13,29.76,10.0,SSW,11.5,17.3,N/A,Rain,Light Rain,210,2014-05-07 03:15:00
9:35 PM,71.6,21.2,15,29.77,10.0,South,10.4,-,N/A,Rain,Light Rain,180,2014-05-07 03:35:00
9:55 PM,68.0,19.4,16,29.78,10.0,South,11.5,-,N/A,Rain,Light Rain,170,2014-05-07 03:55:00
10:15 PM,68.0,19.4,16,29.78,10.0,South,13.8,19.6,N/A,Rain,Light Rain,170,2014-05-07 04:15:00
10:35 PM,66.2,19.4,17,29.78,10.0,SW,8.1,-,N/A,Rain,Light Rain,220,2014-05-07 04:35:00
10:55 PM,71.6,23.0,16,29.78,10.0,SW,13.8,19.6,N/A,Rain,Light Rain,220,2014-05-07 04:55:00
11:15 PM,69.8,23.0,17,29.78,10.0,SSW,10.4,-,N/A,Rain,Light Rain,200,2014-05-07 05:15:00
11:35 PM,68.0,24.8,20,29.79,10.0,SSW,8.1,-,N/A,,Partly Cloudy,210,2014-05-07 05:35:00
11:55 PM,68.0,24.8,20,29.79,10.0,SW,8.1,-,N/A,Rain,Light Rain,220,2014-05-07 05:55:00